Location: Dead Woman Crossing
(43.5369°N, 106.3228°W)
Time: 00:25:48
(UTC+00:00)

ITUPSAT 1 - Visible Passes

Search period start: 28 June 2022 00:00
Search period end: 08 July 2022 00:00
Orbit: 700 x 712 km, 98.6° (Epoch: 27 June)

Date Brightness Start Highest point End Pass type
(mag) Time Alt. Az. Time Alt. Az. Time Alt. Az.
28 Jun ? 03:50:56 10° N 03:55:41 66° WNW 04:00:25 10° SSW visible
29 Jun ? 04:35:21 10° N 04:39:18 26° WNW 04:43:14 10° WSW visible
30 Jun ? 03:40:50 10° NNE 03:45:38 83° WNW 03:50:26 10° SSW visible
30 Jun ? 05:21:21 10° NW 05:22:37 11° WNW 05:23:53 10° WNW visible
01 Jul ? 04:25:05 10° N 04:29:19 32° WNW 04:33:32 10° SW visible
02 Jul ? 03:30:46 10° NNE 03:35:34 79° ESE 03:40:22 10° S visible
02 Jul ? 05:10:21 10° NNW 05:12:42 14° WNW 05:15:03 10° W visible
03 Jul ? 04:14:51 10° N 04:19:18 40° WNW 04:23:46 10° SW visible
04 Jul ? 03:20:43 10° NNE 03:25:30 62° ESE 03:30:14 10° S visible
04 Jul ? 04:59:45 10° NNW 05:02:46 17° WNW 05:05:47 10° W visible
05 Jul ? 04:04:39 10° N 04:09:18 50° WNW 04:13:55 10° SW visible
06 Jul ? 04:49:18 10° NNW 04:52:49 21° WNW 04:56:19 10° WSW visible
07 Jul ? 03:54:30 10° N 03:59:15 63° WNW 04:03:59 10° SSW visible
